When you browse on this site, cookies collect data to enhance your experience and personalize the content and advertising you see.
Visit our Privacy Policy to learn more. By continuing to use the site, you agree to this use of cookies and data.
  • In Austria
  • List of Countries
  • For 7 days
  • Water Temperature
  • Satellite Maps
  • Weather Map
  • News
  • Weather Widgets
  • user-avatar
    Login

    Hourly Weather Asuan

    Today, 19 November, Monday

    Time Temperature Precipitation Wind Pressure Humidity
    00:00 +22°C° 0 mm 4 mps 744 mmHg 27%
    01:00 +22°C° 0 mm 4 mps 744 mmHg 28%
    02:00 +21°C° 0 mm 3 mps 744 mmHg 28%
    03:00 +21°C° 0 mm 3 mps 744 mmHg 29%
    04:00 +20°C° 0 mm 3 mps 744 mmHg 29%
    05:00 +20°C° 0 mm 3 mps 744 mmHg 30%
    06:00 +21°C° 0 mm 3 mps 745 mmHg 28%
    07:00 +22°C° 0 mm 3 mps 745 mmHg 26%
    08:00 +24°C° 0 mm 3 mps 745 mmHg 25%
    09:00 +26°C° 0 mm 3 mps 745 mmHg 22%
    10:00 +27°C° 0 mm 3 mps 745 mmHg 20%
    11:00 +29°C° 0 mm 3 mps 745 mmHg 18%
    12:00 +29°C° 0 mm 3 mps 745 mmHg 17%
    13:00 +30°C° 0 mm 3 mps 745 mmHg 15%
    14:00 +31°C° 0 mm 3 mps 744 mmHg 14%
    15:00 +30°C° 0 mm 3 mps 744 mmHg 15%
    16:00 +29°C° 0 mm 3 mps 744 mmHg 15%
    17:00 +28°C° 0 mm 3 mps 744 mmHg 15%
    18:00 +27°C° 0 mm 3 mps 744 mmHg 17%
    19:00 +26°C° 0 mm 4 mps 745 mmHg 18%
    20:00 +25°C° 0 mm 4 mps 745 mmHg 20%
    21:00 +23°C° 0 mm 4 mps 745 mmHg 21%
    22:00 +23°C° 0 mm 4 mps 745 mmHg 22%
    23:00 +22°C° 0 mm 4 mps 745 mmHg 22%

    Tomorrow, 20 November, Tuesday

    Time Temperature Precipitation Wind Pressure Humidity
    00:00 +22°C° 0 mm 4 mps 745 mmHg 23%
    01:00 +21°C° 0 mm 3 mps 745 mmHg 24%
    02:00 +21°C° 0 mm 3 mps 745 mmHg 24%
    03:00 +21°C° 0 mm 3 mps 745 mmHg 25%
    04:00 +20°C° 0 mm 3 mps 745 mmHg 25%
    05:00 +20°C° 0 mm 3 mps 745 mmHg 26%
    06:00 +21°C° 0 mm 4 mps 746 mmHg 25%
    07:00 +22°C° 0 mm 4 mps 746 mmHg 25%
    08:00 +23°C° 0 mm 4 mps 747 mmHg 24%
    09:00 +26°C° 0 mm 4 mps 747 mmHg 23%
    10:00 +28°C° 0 mm 4 mps 747 mmHg 22%
    11:00 +29°C° 0 mm 5 mps 746 mmHg 21%
    12:00 +30°C° 0 mm 5 mps 746 mmHg 19%
    13:00 +32°C° 0 mm 5 mps 745 mmHg 17%
    14:00 +33°C° 0 mm 5 mps 745 mmHg 14%
    15:00 +32°C° 0 mm 4 mps 745 mmHg 15%
    16:00 +29°C° 0 mm 4 mps 744 mmHg 16%
    17:00 +28°C° 0 mm 3 mps 744 mmHg 16%
    18:00 +27°C° 0 mm 4 mps 745 mmHg 17%
    19:00 +27°C° 0 mm 4 mps 745 mmHg 18%
    20:00 +26°C° 0 mm 4 mps 745 mmHg 19%
    21:00 +25°C° 0 mm 4 mps 745 mmHg 20%
    22:00 +25°C° 0 mm 4 mps 745 mmHg 21%
    23:00 +23°C° 0 mm 4 mps 745 mmHg 23%

    Day after tomorrow, 21 November, Wednesday

    Time Temperature Precipitation Wind Pressure Humidity
    00:00 +23°C° 0 mm 4 mps 745 mmHg 25%
    01:00 +23°C° 0 mm 4 mps 745 mmHg 28%
    02:00 +22°C° 0 mm 3 mps 745 mmHg 31%
    03:00 +22°C° 0 mm 3 mps 744 mmHg 36%
    04:00 +21°C° 0 mm 3 mps 744 mmHg 40%
    05:00 +21°C° 0 mm 3 mps 744 mmHg 44%
    06:00 +22°C° 0 mm 3 mps 744 mmHg 43%
    07:00 +23°C° 0 mm 4 mps 745 mmHg 43%
    08:00 +25°C° 0 mm 4 mps 745 mmHg 42%
    09:00 +26°C° 0 mm 4 mps 745 mmHg 38%
    10:00 +28°C° 0 mm 4 mps 745 mmHg 34%
    11:00 +30°C° 0 mm 3 mps 745 mmHg 30%
    12:00 +30°C° 0 mm 3 mps 744 mmHg 27%
    13:00 +31°C° 0 mm 3 mps 743 mmHg 24%
    14:00 +33°C° 0 mm 3 mps 743 mmHg 22%
    15:00 +31°C° 0 mm 3 mps 743 mmHg 23%
    16:00 +30°C° 0 mm 3 mps 743 mmHg 24%
    17:00 +29°C° 0 mm 3 mps 743 mmHg 25%
    18:00 +28°C° 0 mm 3 mps 743 mmHg 26%
    19:00 +28°C° 0 mm 3 mps 743 mmHg 28%
    20:00 +27°C° 0 mm 3 mps 744 mmHg 29%
    21:00 +26°C° 0 mm 3 mps 744 mmHg 29%
    22:00 +26°C° 0 mm 3 mps 744 mmHg 30%
    23:00 +25°C° 0 mm 4 mps 744 mmHg 30%

    22 November, Thursday

    Time Temperature Precipitation Wind Pressure Humidity
    00:00 +25°C° 0 mm 4 mps 743 mmHg 28%
    01:00 +25°C° 0 mm 4 mps 743 mmHg 27%
    02:00 +23°C° 0 mm 4 mps 743 mmHg 25%
    03:00 +24°C° 0 mm 3 mps 743 mmHg 25%
    04:00 +24°C° 0 mm 3 mps 743 mmHg 24%
    05:00 +24°C° 0 mm 3 mps 743 mmHg 23%
    06:00 +24°C° 0 mm 3 mps 743 mmHg 22%
    07:00 +25°C° 0 mm 3 mps 744 mmHg 20%
    08:00 +26°C° 0 mm 3 mps 744 mmHg 19%
    09:00 +28°C° 0 mm 3 mps 744 mmHg 18%
    10:00 +29°C° 0 mm 3 mps 744 mmHg 17%
    11:00 +32°C° 0 mm 4 mps 743 mmHg 17%
    12:00 +32°C° 0 mm 4 mps 743 mmHg 15%
    13:00 +33°C° 0 mm 4 mps 742 mmHg 14%
    14:00 +34°C° 0 mm 4 mps 741 mmHg 13%
    15:00 +33°C° 0 mm 4 mps 742 mmHg 13%
    16:00 +32°C° 0 mm 4 mps 742 mmHg 13%
    17:00 +30°C° 0 mm 3 mps 742 mmHg 13%
    18:00 +29°C° 0 mm 3 mps 742 mmHg 15%
    19:00 +28°C° 0 mm 3 mps 743 mmHg 16%
    20:00 +27°C° 0 mm 3 mps 743 mmHg 17%
    21:00 +26°C° 0 mm 3 mps 744 mmHg 19%
    22:00 +26°C° 0 mm 4 mps 744 mmHg 21%
    23:00 +25°C° 0 mm 4 mps 744 mmHg 22%

    23 November, Friday

    Time Temperature Precipitation Wind Pressure Humidity
    00:00 +25°C° 0 mm 4 mps 743 mmHg 24%
    01:00 +23°C° 0 mm 4 mps 743 mmHg 25%
    02:00 +23°C° 0 mm 4 mps 743 mmHg 27%
    03:00 +22°C° 0 mm 4 mps 743 mmHg 27%
    04:00 +22°C° 0 mm 4 mps 743 mmHg 28%
    05:00 +22°C° 0 mm 4 mps 743 mmHg 29%
    06:00 +22°C° 0 mm 4 mps 744 mmHg 27%
    07:00 +23°C° 0 mm 4 mps 744 mmHg 25%
    08:00 +25°C° 0 mm 5 mps 745 mmHg 23%
    09:00 +26°C° 0 mm 5 mps 745 mmHg 22%
    10:00 +28°C° 0 mm 5 mps 745 mmHg 22%
    11:00 +29°C° 0 mm 5 mps 745 mmHg 21%
    12:00 +29°C° 0 mm 5 mps 744 mmHg 22%
    13:00 +30°C° 0 mm 5 mps 744 mmHg 23%
    14:00 +30°C° 0 mm 5 mps 743 mmHg 24%
    15:00 +29°C° 0 mm 5 mps 743 mmHg 25%
    16:00 +28°C° 0 mm 5 mps 744 mmHg 27%
    17:00 +27°C° 0 mm 5 mps 744 mmHg 28%
    18:00 +26°C° 0 mm 5 mps 744 mmHg 31%
    19:00 +25°C° 0 mm 5 mps 745 mmHg 34%
    20:00 +23°C° 0 mm 5 mps 745 mmHg 36%
    21:00 +22°C° 0 mm 5 mps 745 mmHg 38%
    22:00 +21°C° 0 mm 5 mps 745 mmHg 40%
    23:00 +21°C° 0 mm 5 mps 745 mmHg 42%

    24 November, Saturday

    Time Temperature Precipitation Wind Pressure Humidity
    00:00 +20°C° 0 mm 5 mps 745 mmHg 45%
    01:00 +19°C° 0 mm 5 mps 745 mmHg 47%
    02:00 +19°C° 0 mm 4 mps 745 mmHg 49%
    03:00 +19°C° 0 mm 4 mps 745 mmHg 52%
    04:00 +18°C° 0 mm 4 mps 745 mmHg 54%
    05:00 +18°C° 0 mm 4 mps 745 mmHg 57%
    06:00 +18°C° 0 mm 4 mps 746 mmHg 56%
    07:00 +19°C° 0 mm 5 mps 746 mmHg 55%
    08:00 +20°C° 0 mm 5 mps 747 mmHg 54%
    09:00 +21°C° 0 mm 5 mps 747 mmHg 49%
    10:00 +22°C° 0 mm 5 mps 746 mmHg 45%
    11:00 +23°C° 0 mm 4 mps 746 mmHg 40%
    12:00 +25°C° 0 mm 4 mps 745 mmHg 37%
    13:00 +26°C° 0 mm 4 mps 745 mmHg 34%
    14:00 +26°C° 0 mm 4 mps 744 mmHg 31%
    15:00 +26°C° 0 mm 4 mps 744 mmHg 32%
    16:00 +25°C° 0 mm 4 mps 745 mmHg 34%
    17:00 +25°C° 0 mm 4 mps 745 mmHg 35%
    18:00 +23°C° 0 mm 4 mps 745 mmHg 38%
    19:00 +22°C° 0 mm 4 mps 746 mmHg 40%
    20:00 +21°C° 0 mm 5 mps 746 mmHg 43%
    21:00 +20°C° 0 mm 5 mps 746 mmHg 44%
    22:00 +20°C° 0 mm 5 mps 746 mmHg 45%
    23:00 +19°C° 0 mm 5 mps 746 mmHg 46%
    Show more